Weather History for KLHX - August, 2013

Change the Weather History Date:

Monday, August 5, 2013

  Actual Average Record
Temperature  
Mean Temperature 82 °F 78 °F  
Max Temperature 95 °F 92 °F - ()
Min Temperature 68 °F 63 °F - ()
Degree Days  
Heating Degree Days 0 0  
Month to date heating degree days 0 0  
Since 1 June heating degree days 11 17  
Since 1 July heating degree days 0 1  
Cooling Degree Days 17 13  
Month to date cooling degree days 75 65  
Year to date cooling degree days 1042 796  
Since 1 June cooling degree days 904 723  
Growing Degree Days 31 (Base 50)    
Moisture  
Dew Point 57 °F    
Average Humidity 48    
Maximum Humidity 74    
Minimum Humidity 22    
Precipitation  
Precipitation 0.02 in 0.06 in - ()
Month to date precipitation T 0.30  
Year to date precipitation 3.56 7.78  
Sea Level Pressure  
Sea Level Pressure 29.84 in    
Wind  
Wind Speed 7 mph (South)    
Max Wind Speed 28 mph    
Max Gust Speed 32 mph    
Visibility 10 miles    
Events      
T = Trace of Precipitation, MM = Missing Value Source: NWS Daily Summary

Daily Weather History Graph

Daily Weather History Graph

Search for Another Location

Airport or City:

Trip Planner

Search our weather history database for the weather conditions in past years. The results will help you decide how hot, cold, wet, or windy it might be!

Date:

Astronomy

Aug. 05, 2013 Rise Set
Actual Time 6:00 AM MDT 7:58 PM MDT
Civil Twilight 5:31 AM MDT 8:27 PM MDT
Nautical Twilight 4:56 AM MDT 9:02 PM MDT
Astronomical Twilight 4:18 AM MDT 9:40 PM MDT
Moon 4:57 AM MDT (8/5) 7:01 PM MDT (8/5)
Length of Visible Light 14h 55m
Length of Day
13h 58m
Waning Crescent, 1% of the Moon is Illuminated
Aug 5
Waning Crescent
Aug 6
New
Aug 14
First Quarter
Aug 20
Full
Aug 28
Last Quarter

Hourly Weather History & Observations

Time (MDT) Temp. Heat Index Dew Point Humidity Pressure Visibility Wind Dir Wind Speed Gust Speed Precip Events Conditions
12:53 AM 73.9 °F - 59.0 °F 59% 29.93 in 10.0 mi WNW 10.4 mph - N/A   Clear
1:53 AM 72.0 °F - 59.0 °F 64% 29.91 in 10.0 mi West 12.7 mph - N/A   Clear
2:53 AM 71.1 °F - 60.1 °F 68% 29.88 in 10.0 mi West 10.4 mph - N/A   Clear
3:53 AM 71.1 °F - 61.0 °F 70% 29.87 in 10.0 mi South 5.8 mph - N/A   Clear
4:53 AM 70.0 °F - 60.1 °F 71% 29.86 in 10.0 mi SSW 4.6 mph - N/A   Clear
5:53 AM 69.1 °F - 60.1 °F 73% 29.86 in 10.0 mi South 5.8 mph - N/A   Clear
6:53 AM 70.0 °F - 60.1 °F 71% 29.87 in 10.0 mi SW 3.5 mph - N/A   Clear
7:53 AM 73.0 °F - 60.1 °F 64% 29.89 in 10.0 mi SW 11.5 mph - N/A   Clear
8:53 AM 78.1 °F - 59.0 °F 52% 29.88 in 10.0 mi SW 6.9 mph 31.1 mph N/A   Clear
9:53 AM 82.9 °F 82.1 °F 55.9 °F 39% 29.85 in 10.0 mi SW 9.2 mph - N/A   Clear
10:53 AM 84.9 °F 83.6 °F 55.0 °F 36% 29.85 in 10.0 mi SW 8.1 mph - N/A   Clear
11:53 AM 88.0 °F - 52.0 °F 29% 29.84 in 10.0 mi Calm Calm - 0.02 in   Clear
12:53 PM 90.0 °F - 52.0 °F 27% 29.82 in 10.0 mi Calm Calm - N/A   Clear
1:53 PM 91.0 °F - 51.1 °F 25% 29.80 in 10.0 mi Calm Calm - N/A   Clear
2:53 PM 93.0 °F - 50.0 °F 23% 29.77 in 10.0 mi SW 9.2 mph - N/A   Clear
3:53 PM 93.0 °F - 50.0 °F 23% 29.76 in 10.0 mi SE 4.6 mph - N/A   Clear
4:53 PM 93.0 °F - 48.9 °F 22% 29.76 in 10.0 mi Calm Calm - N/A   Clear
5:53 PM 93.0 °F - 48.9 °F 22% 29.76 in 10.0 mi ESE 3.5 mph - N/A   Clear
6:53 PM 93.0 °F - 48.9 °F 22% 29.75 in 10.0 mi Variable 4.6 mph - N/A   Clear
7:53 PM 84.0 °F 83.8 °F 59.0 °F 43% 29.78 in 10.0 mi East 26.5 mph 32.2 mph N/A   Partly Cloudy
8:09 PM 80.6 °F 81.5 °F 60.8 °F 51% 30.00 in 10.0 mi East 20.7 mph 27.6 mph N/A   Mostly Cloudy
8:53 PM 79.0 °F - 64.0 °F 60% 29.83 in 10.0 mi NE 6.9 mph - 0.00 in   Scattered Clouds
9:53 PM 77.0 °F - 64.9 °F 66% 29.83 in 10.0 mi ESE 8.1 mph - N/A   Clear
10:53 PM 75.9 °F - 66.0 °F 71% 29.87 in 10.0 mi East 4.6 mph - N/A   Partly Cloudy
11:53 PM 75.0 °F - 66.9 °F 76% 29.84 in 10.0 mi East 4.6 mph - N/A   Clear